FWV10 LDDU-LSZH

Flight info

Callsign FWV10
Flight time 1h 26m
Altitude 36000
Route AMUGO DCT SPL DCT ZDA DCT MONFA DCT BAKOR DCT SOTOV/N0448F300 P66 KPT L856 NEGRA
Aircraft A320/M-SDE3FGHIRWY/LB1

Departure

Time 2026-05-07 18:12
Airport Dubrovnik Ruđer Bošković Airport (LDDU)

Arrival

Time 2026-05-07 19:39
Airport Zürich Airport (LSZH)
Time Latitude Longitude Altitude Speed Heading
2026-05-07 17:35 42.56167 18.26105 534 ft 0 kts 208°
2026-05-07 17:56 42.56174 18.26110 534 ft 4 kts 208°
2026-05-07 17:56 42.56195 18.26125 534 ft 2 kts 208°
2026-05-07 17:57 42.56212 18.26143 534 ft 4 kts 257°
2026-05-07 17:57 42.56212 18.26162 534 ft 3 kts 298°
2026-05-07 17:57 42.56203 18.26185 534 ft 0 kts 298°
2026-05-07 18:03 42.56215 18.26153 534 ft 10 kts 298°
2026-05-07 18:03 42.56251 18.26064 534 ft 10 kts 298°
2026-05-07 18:03 42.56281 18.25988 534 ft 8 kts 298°
2026-05-07 18:04 42.56309 18.25919 534 ft 9 kts 298°
2026-05-07 18:04 42.56345 18.25829 534 ft 12 kts 298°
2026-05-07 18:04 42.56386 18.25727 534 ft 12 kts 298°
2026-05-07 18:04 42.56422 18.25637 534 ft 10 kts 298°
2026-05-07 18:05 42.56452 18.25559 534 ft 9 kts 298°
2026-05-07 18:05 42.56478 18.25494 534 ft 7 kts 298°
2026-05-07 18:05 42.56499 18.25440 534 ft 7 kts 298°
2026-05-07 18:05 42.56548 18.25317 534 ft 18 kts 298°
2026-05-07 18:06 42.56604 18.25175 534 ft 16 kts 298°
2026-05-07 18:06 42.56655 18.25048 533 ft 14 kts 298°
2026-05-07 18:06 42.56699 18.24936 533 ft 13 kts 298°
2026-05-07 18:06 42.56737 18.24839 534 ft 11 kts 298°
2026-05-07 18:07 42.56781 18.24730 534 ft 13 kts 298°
2026-05-07 18:07 42.56851 18.24672 533 ft 15 kts
2026-05-07 18:07 42.56938 18.24784 533 ft 19 kts 93°
2026-05-07 18:07 42.56912 18.24871 533 ft 0 kts 117°
2026-05-07 18:11 42.56876 18.24961 533 ft 39 kts 118°
2026-05-07 18:12 42.56634 18.25571 535 ft 104 kts 118°
2026-05-07 18:12 42.56208 18.26648 537 ft 153 kts 117°
2026-05-07 18:12 42.55687 18.27980 957 ft 164 kts 117°
2026-05-07 18:12 42.55142 18.29340 1643 ft 167 kts 119°
2026-05-07 18:13 42.54596 18.30721 2376 ft 167 kts 120°
2026-05-07 18:13 42.54016 18.32181 2723 ft 186 kts 121°
2026-05-07 18:13 42.53138 18.33539 2947 ft 202 kts 156°
2026-05-07 18:13 42.51747 18.33674 3462 ft 207 kts 201°
2026-05-07 18:14 42.50595 18.32480 4030 ft 221 kts 232°
2026-05-07 18:14 42.50044 18.30433 4352 ft 249 kts 266°
2026-05-07 18:14 42.50162 18.28011 4926 ft 263 kts 272°
2026-05-07 18:14 42.50336 18.25514 5701 ft 268 kts 272°
2026-05-07 18:15 42.50510 18.22988 6498 ft 272 kts 272°
2026-05-07 18:15 42.50684 18.20417 7247 ft 276 kts 272°
2026-05-07 18:15 42.50854 18.17820 8055 ft 277 kts 271°
2026-05-07 18:15 42.51198 18.15229 8842 ft 284 kts 287°
2026-05-07 18:16 42.52219 18.12896 9631 ft 292 kts 302°
2026-05-07 18:16 42.53434 18.10679 10345 ft 297 kts 302°
2026-05-07 18:16 42.54722 18.08345 10545 ft 321 kts 303°
2026-05-07 18:16 42.56104 18.05835 10710 ft 343 kts 303°
2026-05-07 18:17 42.57539 18.03237 11178 ft 352 kts 303°
2026-05-07 18:17 42.59012 18.00572 11851 ft 354 kts 303°
2026-05-07 18:17 42.60491 17.97887 12594 ft 355 kts 303°
2026-05-07 18:17 42.61968 17.95201 13352 ft 356 kts 303°
2026-05-07 18:18 42.63448 17.92500 14044 ft 357 kts 303°
2026-05-07 18:18 42.64934 17.89787 14640 ft 359 kts 303°
2026-05-07 18:18 42.66429 17.87051 15221 ft 362 kts 303°
2026-05-07 18:18 42.67933 17.84293 15784 ft 365 kts 303°
2026-05-07 18:19 42.69445 17.81511 16359 ft 367 kts 303°
2026-05-07 18:19 42.70969 17.78704 16899 ft 370 kts 303°
2026-05-07 18:19 42.72506 17.75880 17448 ft 373 kts 303°
2026-05-07 18:19 42.74054 17.73033 17985 ft 376 kts 302°
2026-05-07 18:20 42.75616 17.70157 18470 ft 380 kts 302°
2026-05-07 18:20 42.77189 17.67255 18914 ft 382 kts 302°
2026-05-07 18:20 42.78774 17.64327 19373 ft 385 kts 302°
2026-05-07 18:20 42.80366 17.61390 19841 ft 387 kts 302°
2026-05-07 18:21 42.81968 17.58430 20294 ft 389 kts 302°
2026-05-07 18:21 42.83576 17.55456 20746 ft 391 kts 302°
2026-05-07 18:21 42.85195 17.52462 21190 ft 393 kts 302°
2026-05-07 18:21 42.86818 17.49452 21617 ft 395 kts 302°
2026-05-07 18:22 42.88428 17.46459 22016 ft 397 kts 301°
2026-05-07 18:22 42.89533 17.44401 22303 ft 399 kts 301°
2026-05-07 18:22 42.91708 17.40351 22891 ft 401 kts 301°
2026-05-07 18:22 42.93359 17.37271 23314 ft 403 kts 301°
2026-05-07 18:23 42.95016 17.34177 23735 ft 404 kts 301°
2026-05-07 18:23 42.96677 17.31074 24094 ft 406 kts 301°
2026-05-07 18:23 42.98347 17.27953 24454 ft 407 kts 301°
2026-05-07 18:23 43.00017 17.24830 24801 ft 408 kts 301°
2026-05-07 18:24 43.01694 17.21697 25150 ft 409 kts 301°
2026-05-07 18:24 43.03377 17.18553 25496 ft 410 kts 301°
2026-05-07 18:24 43.05060 17.15401 25832 ft 411 kts 301°
2026-05-07 18:24 43.06747 17.12240 26174 ft 412 kts 301°
2026-05-07 18:25 43.08437 17.09066 26510 ft 413 kts 301°
2026-05-07 18:25 43.10126 17.05881 26847 ft 414 kts 301°
2026-05-07 18:25 43.11822 17.02681 27192 ft 415 kts 301°
2026-05-07 18:25 43.13519 16.99478 27505 ft 416 kts 301°
2026-05-07 18:26 43.15219 16.96270 27832 ft 417 kts 301°
2026-05-07 18:26 43.16927 16.93046 28106 ft 418 kts 302°
2026-05-07 18:26 43.18636 16.89817 28381 ft 420 kts 302°
2026-05-07 18:26 43.20351 16.86570 28663 ft 421 kts 302°
2026-05-07 18:27 43.22066 16.83313 28940 ft 422 kts 302°
2026-05-07 18:27 43.23787 16.80041 29212 ft 423 kts 302°
2026-05-07 18:27 43.25513 16.76757 29475 ft 425 kts 302°
2026-05-07 18:27 43.26656 16.74578 29649 ft 425 kts 302°
2026-05-07 18:28 43.28942 16.70223 30139 ft 424 kts 302°
2026-05-07 18:28 43.30661 16.66946 30498 ft 421 kts 301°
2026-05-07 18:28 43.32373 16.63691 30854 ft 419 kts 301°
2026-05-07 18:28 43.34074 16.60451 31191 ft 417 kts 301°
2026-05-07 18:29 43.35762 16.57223 31537 ft 415 kts 301°
2026-05-07 18:29 43.37443 16.54000 31874 ft 413 kts 300°
2026-05-07 18:29 43.39116 16.50794 32211 ft 412 kts 300°
2026-05-07 18:29 43.40782 16.47598 32522 ft 410 kts 300°
2026-05-07 18:30 43.42437 16.44415 32877 ft 408 kts 300°
2026-05-07 18:30 43.44091 16.41232 33135 ft 409 kts 300°
2026-05-07 18:30 43.45741 16.38051 33408 ft 408 kts 300°
2026-05-07 18:30 43.47390 16.34871 33694 ft 407 kts 300°
2026-05-07 18:31 43.49032 16.31699 34012 ft 407 kts 299°
2026-05-07 18:31 43.50830 16.28659 34248 ft 411 kts 305°
2026-05-07 18:31 43.52736 16.25717 34471 ft 411 kts 305°
2026-05-07 18:31 43.54639 16.22778 34706 ft 411 kts 305°
2026-05-07 18:32 43.56539 16.19838 34945 ft 411 kts 305°
2026-05-07 18:32 43.58435 16.16896 35179 ft 410 kts 305°
2026-05-07 18:32 43.60326 16.13959 35416 ft 410 kts 305°
2026-05-07 18:32 43.62221 16.11014 35630 ft 409 kts 305°
2026-05-07 18:33 43.64085 16.08116 35835 ft 409 kts 305°
2026-05-07 18:33 43.65971 16.05177 36003 ft 409 kts 305°
2026-05-07 18:33 43.67859 16.02231 36054 ft 409 kts 305°
2026-05-07 18:34 43.71626 15.96342 36055 ft 409 kts 304°
2026-05-07 18:34 43.75388 15.90443 36054 ft 409 kts 304°
2026-05-07 18:35 43.79156 15.84551 36061 ft 409 kts 304°
2026-05-07 18:35 43.82917 15.78642 36056 ft 409 kts 304°
2026-05-07 18:36 43.86665 15.72724 36050 ft 409 kts 304°
2026-05-07 18:36 43.90411 15.66801 36056 ft 409 kts 304°
2026-05-07 18:37 43.94156 15.60868 36084 ft 409 kts 304°
2026-05-07 18:37 43.97915 15.54920 36073 ft 410 kts 304°
2026-05-07 18:38 44.01675 15.48972 36069 ft 410 kts 304°
2026-05-07 18:38 44.04790 15.44014 36067 ft 410 kts 304°
2026-05-07 18:39 44.08532 15.38029 36065 ft 410 kts 304°
2026-05-07 18:39 44.12358 15.32125 36079 ft 412 kts 307°
2026-05-07 18:40 44.16371 15.26410 36096 ft 413 kts 308°
2026-05-07 18:40 44.20403 15.20702 36079 ft 413 kts 307°
2026-05-07 18:41 44.24401 15.14938 36068 ft 413 kts 307°
2026-05-07 18:41 44.28371 15.09138 36061 ft 413 kts 307°
2026-05-07 18:42 44.32338 15.03326 36067 ft 413 kts 307°
2026-05-07 18:42 44.36308 14.97517 36063 ft 413 kts 307°
2026-05-07 18:43 44.40280 14.91699 36076 ft 413 kts 307°
2026-05-07 18:43 44.44245 14.85870 36062 ft 414 kts 307°
2026-05-07 18:44 44.48219 14.80029 36057 ft 414 kts 307°
2026-05-07 18:44 44.52193 14.74173 36054 ft 415 kts 307°
2026-05-07 18:45 44.56166 14.68309 36052 ft 415 kts 307°
2026-05-07 18:45 44.60143 14.62434 36053 ft 415 kts 307°
2026-05-07 18:46 44.64108 14.56552 36047 ft 415 kts 307°
2026-05-07 18:46 44.68076 14.50644 36068 ft 416 kts 307°
2026-05-07 18:47 44.72047 14.44734 36056 ft 416 kts 307°
2026-05-07 18:47 44.76019 14.38810 36052 ft 416 kts 307°
2026-05-07 18:48 44.79992 14.32861 36049 ft 416 kts 307°
2026-05-07 18:48 44.83956 14.26918 36048 ft 416 kts 307°
2026-05-07 18:49 44.87915 14.20960 36067 ft 416 kts 307°
2026-05-07 18:49 44.91879 14.14990 36073 ft 417 kts 307°
2026-05-07 18:50 44.95838 14.09006 36063 ft 417 kts 307°
2026-05-07 18:50 44.99798 14.03013 36044 ft 417 kts 307°
2026-05-07 18:51 45.03765 13.97015 36053 ft 418 kts 307°
2026-05-07 18:51 45.07727 13.91003 36062 ft 418 kts 307°
2026-05-07 18:52 45.11683 13.84985 36062 ft 417 kts 307°
2026-05-07 18:52 45.15630 13.78950 36069 ft 417 kts 307°
2026-05-07 18:53 45.19574 13.72913 36060 ft 417 kts 307°
2026-05-07 18:53 45.23492 13.66907 36045 ft 418 kts 307°
2026-05-07 18:54 45.27437 13.60850 36062 ft 418 kts 307°
2026-05-07 18:54 45.31373 13.54788 36053 ft 417 kts 307°
2026-05-07 18:55 45.35302 13.48725 36047 ft 417 kts 307°
2026-05-07 18:55 45.39232 13.42658 36056 ft 417 kts 307°
2026-05-07 18:56 45.43160 13.36575 36043 ft 417 kts 307°
2026-05-07 18:56 45.47088 13.30482 36058 ft 418 kts 307°
2026-05-07 18:57 45.51094 13.24467 36049 ft 420 kts 309°
2026-05-07 18:57 45.55369 13.18757 36041 ft 422 kts 311°
2026-05-07 18:58 45.59697 13.13120 36032 ft 421 kts 311°
2026-05-07 18:58 45.63983 13.07414 36041 ft 421 kts 310°
2026-05-07 18:59 45.68231 13.01646 36042 ft 421 kts 310°
2026-05-07 18:59 45.72468 12.95854 36041 ft 422 kts 310°
2026-05-07 19:00 45.76719 12.90065 36033 ft 422 kts 310°
2026-05-07 19:00 45.80979 12.84270 36037 ft 422 kts 310°
2026-05-07 19:01 45.85201 12.78511 36057 ft 422 kts 310°
2026-05-07 19:01 45.89450 12.72695 36032 ft 422 kts 310°
2026-05-07 19:02 45.93693 12.66873 36038 ft 422 kts 310°
2026-05-07 19:02 45.97927 12.61050 36029 ft 421 kts 310°
2026-05-07 19:03 46.02154 12.55221 36026 ft 421 kts 310°
2026-05-07 19:03 46.06373 12.49382 36021 ft 420 kts 310°
2026-05-07 19:04 46.10596 12.43550 36021 ft 421 kts 310°
2026-05-07 19:04 46.14814 12.37706 36030 ft 420 kts 310°
2026-05-07 19:05 46.19015 12.31842 36036 ft 420 kts 310°
2026-05-07 19:05 46.23219 12.25977 36030 ft 419 kts 310°
2026-05-07 19:06 46.27420 12.20109 36049 ft 421 kts 310°
2026-05-07 19:06 46.33724 12.11280 36066 ft 420 kts 310°
2026-05-07 19:07 46.37928 12.05374 36062 ft 421 kts 310°
2026-05-07 19:07 46.42103 11.99498 36054 ft 422 kts 310°
2026-05-07 19:08 46.46307 11.93559 36045 ft 422 kts 310°
2026-05-07 19:08 46.50506 11.87611 36045 ft 422 kts 310°
2026-05-07 19:09 46.54710 11.81656 36035 ft 422 kts 310°
2026-05-07 19:09 46.58910 11.75684 36046 ft 422 kts 310°
2026-05-07 19:10 46.63075 11.69665 36036 ft 422 kts 309°
2026-05-07 19:10 46.67104 11.63471 36031 ft 421 kts 308°
2026-05-07 19:11 46.71096 11.57219 36037 ft 421 kts 308°
2026-05-07 19:11 46.75108 11.50991 36041 ft 422 kts 308°
2026-05-07 19:12 46.79134 11.44770 36066 ft 421 kts 309°
2026-05-07 19:12 46.83153 11.38544 36084 ft 422 kts 309°
2026-05-07 19:13 46.87185 11.32281 36076 ft 423 kts 309°
2026-05-07 19:13 46.91215 11.26003 36060 ft 424 kts 309°
2026-05-07 19:14 46.95511 11.20060 36052 ft 431 kts 320°
2026-05-07 19:14 47.00578 11.15370 36068 ft 434 kts 323°
2026-05-07 19:15 47.05722 11.10646 36100 ft 434 kts 323°
2026-05-07 19:15 47.10657 11.05632 36083 ft 429 kts 316°
2026-05-07 19:16 47.15254 11.00127 36081 ft 429 kts 316°
2026-05-07 19:16 47.19916 10.94551 36070 ft 429 kts 316°
2026-05-07 19:17 47.24516 10.89033 36079 ft 429 kts 316°
2026-05-07 19:17 47.29148 10.83470 36094 ft 429 kts 316°
2026-05-07 19:18 47.33773 10.77897 36078 ft 429 kts 316°
2026-05-07 19:18 47.38398 10.72303 36073 ft 430 kts 317°
2026-05-07 19:19 47.43200 10.67001 36072 ft 432 kts 321°
2026-05-07 19:19 47.48211 10.62043 36075 ft 433 kts 322°
2026-05-07 19:20 47.53221 10.57101 36093 ft 433 kts 322°
2026-05-07 19:20 47.58187 10.52051 35670 ft 435 kts 321°
2026-05-07 19:21 47.60688 10.49452 34701 ft 443 kts 321°
2026-05-07 19:21 47.63211 10.46816 33909 ft 443 kts 321°
2026-05-07 19:21 47.65720 10.44194 32603 ft 440 kts 321°
2026-05-07 19:21 47.68231 10.41573 31118 ft 442 kts 322°
2026-05-07 19:22 47.70567 10.38642 29788 ft 437 kts 311°
2026-05-07 19:22 47.72397 10.35105 28380 ft 430 kts 299°
2026-05-07 19:22 47.73633 10.31110 27078 ft 423 kts 286°
2026-05-07 19:22 47.74054 10.28305 26262 ft 419 kts 276°
2026-05-07 19:23 47.74041 10.24013 25091 ft 414 kts 262°
2026-05-07 19:23 47.73524 10.19828 23919 ft 411 kts 259°
2026-05-07 19:23 47.72972 10.15678 22682 ft 407 kts 259°
2026-05-07 19:23 47.72415 10.11590 21662 ft 399 kts 258°
2026-05-07 19:24 47.71706 10.06430 21185 ft 374 kts 258°
2026-05-07 19:24 47.71358 10.03882 20888 ft 370 kts 258°
2026-05-07 19:24 47.70852 10.00164 20461 ft 365 kts 258°
2026-05-07 19:24 47.70355 9.96488 20031 ft 361 kts 259°
2026-05-07 19:25 47.69865 9.92851 19608 ft 358 kts 259°
2026-05-07 19:25 47.69379 9.89247 19175 ft 355 kts 258°
2026-05-07 19:25 47.68894 9.85673 18759 ft 352 kts 258°
2026-05-07 19:25 47.68411 9.82125 18301 ft 350 kts 258°
2026-05-07 19:26 47.67927 9.78595 17823 ft 348 kts 258°
2026-05-07 19:26 47.67451 9.75144 17388 ft 345 kts 258°
2026-05-07 19:26 47.66964 9.71624 16947 ft 342 kts 258°
2026-05-07 19:26 47.66486 9.68187 16507 ft 340 kts 258°
2026-05-07 19:27 47.66015 9.64810 16067 ft 338 kts 258°
2026-05-07 19:27 47.65539 9.61410 15631 ft 336 kts 258°
2026-05-07 19:27 47.65068 9.58035 15196 ft 334 kts 258°
2026-05-07 19:27 47.64602 9.54672 14759 ft 332 kts 258°
2026-05-07 19:28 47.64138 9.51328 14319 ft 330 kts 258°
2026-05-07 19:28 47.63673 9.47998 13845 ft 330 kts 258°
2026-05-07 19:28 47.63207 9.44673 13358 ft 328 kts 258°
2026-05-07 19:28 47.62745 9.41385 12915 ft 325 kts 258°
2026-05-07 19:29 47.62286 9.38120 12471 ft 322 kts 258°
2026-05-07 19:29 47.61830 9.34890 12016 ft 319 kts 258°
2026-05-07 19:29 47.61377 9.31681 11579 ft 317 kts 258°
2026-05-07 19:29 47.60925 9.28484 11129 ft 315 kts 258°
2026-05-07 19:30 47.60476 9.25315 10681 ft 314 kts 258°
2026-05-07 19:30 47.60034 9.22195 10501 ft 304 kts 257°
2026-05-07 19:30 47.59606 9.19190 10376 ft 292 kts 257°
2026-05-07 19:30 47.59192 9.16290 10253 ft 282 kts 257°
2026-05-07 19:31 47.58790 9.13485 10029 ft 275 kts 257°
2026-05-07 19:31 47.58394 9.10727 9883 ft 273 kts 257°
2026-05-07 19:31 47.57998 9.07974 9700 ft 274 kts 257°
2026-05-07 19:31 47.57434 9.05251 9173 ft 277 kts 245°
2026-05-07 19:32 47.56435 9.02849 8817 ft 274 kts 231°
2026-05-07 19:32 47.55067 9.00876 8387 ft 275 kts 220°
2026-05-07 19:32 47.53595 8.99073 7967 ft 275 kts 220°
2026-05-07 19:32 47.52128 8.97275 7561 ft 274 kts 220°
2026-05-07 19:33 47.50641 8.95449 6914 ft 283 kts 220°
2026-05-07 19:33 47.49123 8.93586 6264 ft 281 kts 219°
2026-05-07 19:33 47.47670 8.91803 6024 ft 262 kts 219°
2026-05-07 19:33 47.46327 8.90153 5902 ft 241 kts 219°
2026-05-07 19:34 47.45068 8.88579 5813 ft 235 kts 224°
2026-05-07 19:34 47.44139 8.86687 5685 ft 222 kts 245°
2026-05-07 19:34 47.43743 8.84545 5465 ft 213 kts 265°
2026-05-07 19:34 47.43818 8.82393 5166 ft 208 kts 276°
2026-05-07 19:35 47.43975 8.80289 4861 ft 204 kts 276°
2026-05-07 19:35 47.44128 8.78220 4558 ft 201 kts 276°
2026-05-07 19:35 47.44277 8.76188 4265 ft 197 kts 277°
2026-05-07 19:35 47.44420 8.74227 3979 ft 188 kts 277°
2026-05-07 19:36 47.44556 8.72357 3719 ft 178 kts 277°
2026-05-07 19:36 47.44681 8.70582 3463 ft 170 kts 276°
2026-05-07 19:36 47.44770 8.68904 3333 ft 158 kts 275°
2026-05-07 19:36 47.44856 8.67305 3103 ft 154 kts 277°
2026-05-07 19:37 47.44978 8.65754 2834 ft 151 kts 279°
2026-05-07 19:37 47.45106 8.64230 2598 ft 149 kts 278°
2026-05-07 19:37 47.45216 8.62716 2344 ft 147 kts 278°
2026-05-07 19:37 47.45340 8.61220 2102 ft 147 kts 278°
2026-05-07 19:38 47.45448 8.59721 1876 ft 147 kts 277°
2026-05-07 19:38 47.45561 8.58251 1666 ft 147 kts 278°
2026-05-07 19:38 47.45679 8.56734 1436 ft 146 kts 278°
2026-05-07 19:38 47.45776 8.55426 1400 ft 104 kts 276°
2026-05-07 19:39 47.45832 8.54600 1387 ft 47 kts 272°
2026-05-07 19:39 47.45780 8.54337 1386 ft 18 kts 245°
2026-05-07 19:39 47.45689 8.54210 1385 ft 20 kts 186°
2026-05-07 19:39 47.45604 8.54327 1383 ft 18 kts 110°
2026-05-07 19:40 47.45566 8.54497 1389 ft 17 kts 108°
2026-05-07 19:40 47.45528 8.54665 1388 ft 17 kts 108°
2026-05-07 19:40 47.45491 8.54836 1393 ft 18 kts 108°
2026-05-07 19:40 47.45449 8.55011 1395 ft 17 kts 109°
2026-05-07 19:41 47.45413 8.55171 1405 ft 17 kts 108°
2026-05-07 19:41 47.45367 8.55324 1401 ft 16 kts 121°
2026-05-07 19:41 47.45316 8.55459 1407 ft 14 kts 118°
2026-05-07 19:41 47.45283 8.55548 1408 ft 4 kts 114°
2026-05-07 19:42 47.45276 8.55584 1406 ft 2 kts 99°
2026-05-07 19:42 47.45275 8.55595 1406 ft 0 kts 99°
2026-05-07 19:42 47.45274 8.55611 1406 ft 7 kts 95°
2026-05-07 19:42 47.45312 8.55642 1410 ft 6 kts
2026-05-07 19:43 47.45351 8.55647 1410 ft 3 kts
2026-05-07 19:43 47.45353 8.55647 1410 ft 0 kts